| time (UTC) | temp C | wind direction | speed KPH | gust KPH | rain 1hr cm | rain 24hr cm | rain mn cm | humidity % | barometer mb |
| 20260504023317 | 8 | 30 | 0.0 | 1.6 | 0.00 | 0.00 | 0.00 | 65 | 1001.6 |
| 20260504022747 | 8 | 30 | 0.0 | 1.6 | 0.00 | 0.00 | 0.00 | 62 | 1001.3 |
| 20260504021538 | 8 | 32 | 0.0 | 0.0 | 0.00 | 0.00 | 0.00 | 63 | 1001.6 |
| 20260504020353 | 8 | 22 | 0.0 | 0.0 | 0.00 | 0.00 | 0.00 | 59 | 1001.3 |
| 20260504015734 | 8 | 21 | 0.0 | 0.0 | 0.00 | 0.00 | 0.00 | 64 | 1001.6 |
| 20260504015121 | 8 | 32 | 0.0 | 0.0 | 0.00 | 0.00 | 0.00 | 58 | 1001.6 |
| 20260504014530 | 8 | 32 | 0.0 | 0.0 | 0.00 | 0.00 | 0.00 | 57 | 1001.3 |
| 20260504013925 | 8 | 32 | 0.0 | 0.0 | 0.00 | 0.00 | 0.00 | 53 | 1001.6 |
| 20260504013334 | 8 | 32 | 0.0 | 0.0 | 0.00 | 0.00 | 0.00 | 50 | 1001.3 |
| 20260504012735 | 8 | 32 | 0.0 | 0.0 | 0.00 | 0.00 | 0.00 | 54 | 1001.0 |
| 20260504011522 | 8 | 32 | 0.0 | 0.0 | 0.00 | 0.00 | 0.00 | 50 | 1001.3 |
| 20260504010939 | 8 | 32 | 0.0 | 0.0 | 0.00 | 0.00 | 0.00 | 52 | 1001.3 |
| 20260504010354 | 8 | 32 | 0.0 | 0.0 | 0.00 | 0.00 | 0.00 | 49 | 1001.0 |
| 20260504005728 | 9 | 32 | 0.0 | 0.0 | 0.00 | 0.00 | 0.00 | 49 | 1001.0 |
| 20260504004531 | 9 | 32 | 0.0 | 0.0 | 0.00 | 0.00 | 0.00 | 53 | 1001.0 |
| 20260504003953 | 9 | 32 | 0.0 | 0.0 | 0.00 | 0.00 | 0.00 | 52 | 1001.0 |
| 20260504003337 | 9 | 15 | 0.0 | 0.0 | 0.00 | 0.00 | 0.00 | 50 | 1001.0 |
| 20260504002742 | 9 | 15 | 0.0 | 0.0 | 0.00 | 0.00 | 0.00 | 49 | 1001.0 |
| 20260504002127 | 10 | 14 | 0.0 | 0.0 | 0.00 | 0.00 | 0.00 | 48 | 1001.0 |
| 20260504001533 | 10 | 13 | 0.0 | 0.0 | 0.00 | 0.00 | 0.00 | 50 | 1001.0 |
| 20260504000928 | 10 | 19 | 0.0 | 0.0 | 0.00 | 0.00 | 0.00 | 47 | 1001.0 |
| 20260504000328 | 10 | 19 | 0.0 | 1.6 | 0.00 | 0.00 | 0.00 | 50 | 1001.0 |
| 20260503234521 | 10 | 19 | 0.0 | 0.0 | 0.00 | 0.00 | 0.00 | 42 | 1001.0 |
| 20260503231524 | 11 | 13 | 1.6 | 1.6 | 0.00 | 0.00 | 0.00 | 41 | 1001.0 |
| 20260503230953 | 11 | 19 | 0.0 | 0.0 | 0.00 | 0.00 | 0.00 | 46 | 1001.0 |
| 20260503230351 | 11 | 47 | 1.6 | 1.6 | 0.00 | 0.00 | 0.00 | 42 | 1000.6 |
| 20260503225724 | 11 | 13 | 0.0 | 0.0 | 0.00 | 0.00 | 0.00 | 43 | 1000.6 |
| 20260503225148 | 11 | 10 | 0.0 | 0.0 | 0.00 | 0.00 | 0.00 | 42 | 1001.0 |
| 20260503224527 | 12 | 9 | 0.0 | 0.0 | 0.00 | 0.00 | 0.00 | 38 | 1001.0 |
| 20260503223912 | 12 | 320 | 3.2 | 3.2 | 0.00 | 0.00 | 0.00 | 38 | 1001.3 |
| 20260503223351 | 12 | 352 | 1.6 | 3.2 | 0.00 | 0.00 | 0.00 | 42 | 1001.3 |
| 20260503222727 | 12 | 331 | 3.2 | 3.2 | 0.00 | 0.00 | 0.00 | 36 | 1001.0 |
| 20260503222144 | 12 | 26 | 0.0 | 0.0 | 0.00 | 0.00 | 0.00 | 36 | 1001.0 |
| 20260503221527 | 13 | 294 | 4.8 | 4.8 | 0.00 | 0.00 | 0.00 | 38 | 1001.3 |
| 20260503220909 | 13 | 316 | 1.6 | 3.2 | 0.00 | 0.00 | 0.00 | 36 | 1001.0 |
| 20260503220333 | 13 | 271 | 1.6 | 3.2 | 0.00 | 0.00 | 0.00 | 35 | 1001.0 |
| 20260503215723 | 13 | 310 | 4.8 | 4.8 | 0.00 | 0.00 | 0.00 | 34 | 1001.0 |
| 20260503215141 | 14 | 296 | 3.2 | 3.2 | 0.00 | 0.00 | 0.00 | 37 | 1001.0 |
| 20260503214519 | 14 | 6 | 0.0 | 0.0 | 0.00 | 0.00 | 0.00 | 37 | 1000.6 |
| 20260503213944 | 13 | 357 | 0.0 | 0.0 | 0.00 | 0.00 | 0.00 | 36 | 1001.0 |
| 20260503213328 | 13 | 298 | 3.2 | 3.2 | 0.00 | 0.00 | 0.00 | 36 | 1001.0 |
| 20260503212750 | 13 | 357 | 1.6 | 3.2 | 0.00 | 0.00 | 0.00 | 37 | 1001.0 |
| 20260503212128 | 13 | 2 | 1.6 | 1.6 | 0.00 | 0.00 | 0.00 | 35 | 1001.0 |
| 20260503211543 | 14 | 273 | 4.8 | 6.4 | 0.00 | 0.00 | 0.00 | 34 | 1001.0 |
| 20260503210933 | 13 | 200 | 4.8 | 6.4 | 0.00 | 0.00 | 0.00 | 34 | 1001.0 |
| 20260503210349 | 14 | 293 | 6.4 | 6.4 | 0.00 | 0.00 | 0.00 | 34 | 1001.3 |
| 20260503205719 | 14 | 51 | 1.6 | 1.6 | 0.00 | 0.00 | 0.00 | 34 | 1001.0 |
| 20260503203914 | 13 | 7 | 4.8 | 4.8 | 0.00 | 0.00 | 0.00 | 37 | 1001.3 |
| 20260503203343 | 13 | 280 | 3.2 | 4.8 | 0.00 | 0.00 | 0.00 | 38 | 1001.6 |
| 20260503202733 | 13 | 27 | 1.6 | 1.6 | 0.00 | 0.00 | 0.00 | 36 | 1001.3 |
| 20260503202127 | 13 | 332 | 3.2 | 3.2 | 0.00 | 0.00 | 0.00 | 37 | 1001.3 |
| 20260503201509 | 13 | 241 | 4.8 | 4.8 | 0.00 | 0.00 | 0.00 | 36 | 1001.6 |
| 20260503200953 | 14 | 347 | 4.8 | 6.4 | 0.00 | 0.00 | 0.00 | 36 | 1001.6 |
| 20260503200321 | 13 | 286 | 1.6 | 3.2 | 0.00 | 0.00 | 0.00 | 38 | 1002.0 |
| 20260503195119 | 12 | 285 | 1.6 | 3.2 | 0.00 | 0.00 | 0.00 | 36 | 1002.0 |
| 20260503194527 | 12 | 315 | 4.8 | 4.8 | 0.00 | 0.00 | 0.00 | 37 | 1002.3 |
| 20260503193935 | 12 | 349 | 3.2 | 3.2 | 0.00 | 0.00 | 0.00 | 35 | 1002.0 |
| 20260503193341 | 13 | 335 | 3.2 | 4.8 | 0.00 | 0.00 | 0.00 | 37 | 1002.7 |
| 20260503192753 | 12 | 15 | 1.6 | 3.2 | 0.00 | 0.00 | 0.00 | 38 | 1002.7 |
| 20260503192120 | 13 | 280 | 6.4 | 9.7 | 0.00 | 0.00 | 0.00 | 38 | 1002.3 |
| 20260503190909 | 12 | 309 | 3.2 | 3.2 | 0.00 | 0.00 | 0.00 | 38 | 1002.7 |
| 20260503185750 | 12 | 265 | 6.4 | 11.3 | 0.00 | 0.00 | 0.00 | 38 | 1002.7 |
| 20260503185141 | 12 | 332 | 1.6 | 3.2 | 0.00 | 0.00 | 0.00 | 36 | 1003.0 |
| 20260503184540 | 13 | 334 | 4.8 | 6.4 | 0.00 | 0.00 | 0.00 | 39 | 1002.7 |
| 20260503183353 | 12 | 12 | 1.6 | 3.2 | 0.00 | 0.00 | 0.00 | 43 | 1002.7 |
| 20260503182749 | 12 | 297 | 6.4 | 9.7 | 0.00 | 0.00 | 0.00 | 40 | 1002.7 |
| 20260503182146 | 11 | 350 | 3.2 | 6.4 | 0.00 | 0.00 | 0.00 | 43 | 1002.7 |
| 20260503181545 | 11 | 299 | 3.2 | 3.2 | 0.00 | 0.00 | 0.00 | 40 | 1002.7 |
| 20260503180335 | 12 | 44 | 1.6 | 1.6 | 0.00 | 0.00 | 0.00 | 41 | 1003.0 |
| 20260503175731 | 12 | 28 | 1.6 | 1.6 | 0.00 | 0.00 | 0.00 | 36 | 1003.3 |
| 20260503175123 | 12 | 41 | 1.6 | 1.6 | 0.00 | 0.00 | 0.00 | 37 | 1003.3 |
| 20260503174550 | 11 | 342 | 1.6 | 1.6 | 0.00 | 0.00 | 0.00 | 43 | 1003.3 |
| 20260503173918 | 10 | 126 | 4.8 | 6.4 | 0.00 | 0.00 | 0.00 | 40 | 1003.3 |
| 20260503173309 | 11 | 312 | 3.2 | 3.2 | 0.00 | 0.00 | 0.00 | 39 | 1003.3 |
| 20260503172730 | 11 | 306 | 1.6 | 3.2 | 0.00 | 0.00 | 0.00 | 41 | 1003.7 |
| 20260503172124 | 11 | 29 | 1.6 | 1.6 | 0.00 | 0.00 | 0.00 | 40 | 1003.7 |
| 20260503171538 | 11 | 358 | 1.6 | 3.2 | 0.00 | 0.00 | 0.00 | 45 | 1003.7 |
| 20260503170935 | 10 | 343 | 1.6 | 1.6 | 0.00 | 0.00 | 0.00 | 41 | 1003.7 |
| 20260503170347 | 11 | 45 | 1.6 | 1.6 | 0.00 | 0.00 | 0.00 | 39 | 1003.7 |
| 20260503150929 | 6 | 336 | 0.0 | 1.6 | 0.00 | 0.00 | 0.00 | 52 | 1004.4 |
| 20260503150317 | 6 | 20 | 0.0 | 1.6 | 0.00 | 0.00 | 0.00 | 53 | 1004.7 |
| 20260503130953 | 2 | 38 | 0.0 | 1.6 | 0.00 | 0.00 | 0.00 | 76 | 1004.0 |
| 20260503110340 | -1 | 47 | 1.6 | 1.6 | 0.00 | 0.00 | 0.00 | 96 | 1003.0 |
| 20260503081547 | 0 | 38 | 0.0 | 0.0 | 0.00 | 0.00 | 0.00 | 90 | 1001.6 |
| 20260503080949 | 0 | 34 | 0.0 | 0.0 | 0.00 | 0.00 | 0.00 | 90 | 1001.6 |
| 20260503072739 | 0 | 26 | 0.0 | 0.0 | 0.00 | 0.00 | 0.00 | 86 | 1001.3 |
| 20260503072130 | 0 | 32 | 0.0 | 0.0 | 0.00 | 0.00 | 0.00 | 86 | 1001.3 |
| 20260503071549 | 0 | 32 | 0.0 | 0.0 | 0.00 | 0.00 | 0.00 | 86 | 1001.3 |
| 20260503070936 | 0 | 31 | 0.0 | 0.0 | 0.00 | 0.00 | 0.00 | 86 | 1001.3 |
| 20260503070324 | 0 | 32 | 0.0 | 0.0 | 0.00 | 0.00 | 0.00 | 86 | 1001.3 |
| 20260503054554 | 2 | 9 | 0.0 | 0.0 | 0.00 | 0.00 | 0.00 | 81 | 1001.3 |
| 20260503053919 | 2 | 17 | 0.0 | 1.6 | 0.00 | 0.00 | 0.00 | 80 | 1001.3 |
| 20260503053347 | 2 | 354 | 1.6 | 1.6 | 0.00 | 0.00 | 0.00 | 81 | 1001.3 |
| 20260503052747 | 2 | 9 | 0.0 | 1.6 | 0.00 | 0.00 | 0.00 | 80 | 1001.3 |
| 20260503051524 | 2 | 354 | 1.6 | 1.6 | 0.00 | 0.00 | 0.00 | 80 | 1001.0 |
| 20260503050931 | 2 | 359 | 1.6 | 1.6 | 0.00 | 0.00 | 0.00 | 80 | 1001.0 |
| 20260503050352 | 2 | 215 | 1.6 | 3.2 | 0.00 | 0.00 | 0.00 | 80 | 1001.3 |
| 20260503045715 | 2 | 13 | 0.0 | 1.6 | 0.00 | 0.00 | 0.00 | 80 | 1001.3 |
| 20260503044527 | 2 | 12 | 0.0 | 0.0 | 0.00 | 0.00 | 0.00 | 78 | 1001.3 |
| 20260503043920 | 2 | 15 | 0.0 | 0.0 | 0.00 | 0.00 | 0.00 | 78 | 1001.3 |
| 20260503043328 | 3 | 18 | 0.0 | 0.0 | 0.00 | 0.00 | 0.00 | 77 | 1001.0 |
| 20260503042146 | 3 | 24 | 0.0 | 0.0 | 0.00 | 0.00 | 0.00 | 77 | 1001.0 |
| 20260503041521 | 3 | 7 | 0.0 | 1.6 | 0.00 | 0.00 | 0.00 | 77 | 1001.0 |
| 20260503040953 | 3 | 25 | 0.0 | 0.0 | 0.00 | 0.00 | 0.00 | 77 | 1001.0 |
| 20260503035115 | 3 | 17 | 0.0 | 0.0 | 0.00 | 0.00 | 0.00 | 76 | 1001.0 |
| 20260503034548 | 3 | 17 | 0.0 | 0.0 | 0.00 | 0.00 | 0.00 | 75 | 1001.3 |
| 20260503033930 | 3 | 24 | 0.0 | 1.6 | 0.00 | 0.00 | 0.00 | 75 | 1001.0 |
| 20260503033342 | 3 | 12 | 1.6 | 1.6 | 0.00 | 0.00 | 0.00 | 73 | 1001.0 |
| 20260503032733 | 3 | 13 | 0.0 | 1.6 | 0.00 | 0.00 | 0.00 | 74 | 1001.0 |
| 20260503031530 | 3 | 20 | 0.0 | 0.0 | 0.00 | 0.00 | 0.00 | 73 | 1001.0 |
| 20260503030942 | 3 | 11 | 0.0 | 0.0 | 0.00 | 0.00 | 0.00 | 73 | 1001.0 |
| 20260503030315 | 3 | 14 | 0.0 | 0.0 | 0.00 | 0.00 | 0.00 | 72 | 1001.0 |
| 20260503025735 | 3 | 14 | 0.0 | 0.0 | 0.00 | 0.00 | 0.00 | 72 | 1000.6 |
| 20260503025140 | 3 | 27 | 0.0 | 0.0 | 0.00 | 0.00 | 0.00 | 72 | 1001.0 |